Reflectivity
-20 -8 -20 -8 1 -9 -20 2 18 15 5 11 10 7 -20 -13 -4 -17 -20 -20 -20 -20 -4 -20 -20 -20 -20 -20 -20 -20 -20 -20 -20 -20 -20 -20 -20 -20 -20 -20 -14 -19 -19 -20 -20
-11 -16 7 6 -20 -20 -4 1 9 6 3 -14 3 13 -2 13 -20 -16 -20 -14 -20 -18 26 -16 -20 -20 -20 -20 -20 -20 -20 -20 -20 -20 -20 -20 -20 -20 -20 -20 -20 -18 -20 -20 -20
-20 -8 7 3 -20 -20 2 10 10 -20 -20 -20 3 4 3 -20 4 -19 -20 -12 -20 15 19 -1 -20 -20 -20 -20 -20 -20 -20 -20 -20 -20 -20 -20 -20 -20 -20 -20 -20 -20 -20 -20 -20
-2 -4 2 -20 -20 -20 -9 -14 -8 -20 -20 -20 -20 -20 -18 17 -5 -20 -18 -15 -12 -20 40 -15 15 -20 -20 -20 -20 -20 -20 -20 -20 -20 -20 -20 -20 -20 -20 -20 -20 -20 -20 -20 -20
-18 -1 -15 -20 -20 -20 -20 -20 -20 -20 -20 -20 -20 -10 -17 11 -6 -20 -20 -20 -1 -12 15 26 18 -19 -20 -20 -20 -20 -20 -20 -20 -20 -20 -20 -20 -20 -20 -20 -20 -20 -20 -20 -20
-19 -2 -20 -20 -17 -20 -20 -20 -20 -20 -20 -20 -1 -20 16 8 -20 -20 -20 -20 -7 18 28 41 32 10 -20 -20 -20 -20 -20 -20 -20 -20 -20 -20 -20 -20 -20 -20 -20 -20 -20 -20 -20
-20 -20 -20 -20 -20 -20 -20 -20 -20 -3 -20 18 21 -20 14 27 21 -20 -20 -20 -13 14 15 30 -4 16 -20 -20 -20 -20 -20 -20 -20 -20 -20 -20 -20 -20 -20 -20 -20 -20 -20 -20 -20
-20 -20 -20 -20 -20 -20 -20 -20 -20 -16 -20 15 22 -20 10 34 29 31 17 -9 22 15 17 39 -4 4 -18 -20 -20 -20 -20 -20 -20 -20 -20 -20 -20 -20 -20 -20 -20 -20 -20 -20 -20
-20 -20 -20 -20 -20 -20 -20 -20 -20 -15 -20 -19 -17 -20 5 18 28 32 41 27 17 -7 6 35 -2 8 -19 -20 -20 -20 -20 -20 -20 -20 -20 -20 -20 -20 -20 -20 -20 -20 -20 -20 -20
-3 -20 -20 -20 -20 -20 -20 -20 -20 -20 -20 -20 -13 -20 -20 -3 -11 24 30 18 27 17 35 28 27 3 7 -12 -20 -20 -20 -20 -20 -20 -20 -20 -20 -20 -20 -20 -20 -20 -20 -20 -20
14 14 -20 -20 -20 -20 -20 -20 -20 -20 -20 5 -11 -12 11 -20 -14 26 24 38 34 23 20 33 43 -8 -20 -20 -20 -20 -20 -20 -20 -20 -20 -20 -20 -20 -20 -20 -20 -20 -20 -20 -20
12 15 13 -19 -20 -20 -20 -20 -20 -20 -20 -3 9 1 4 -20 -15 -12 -12 31 10 6 23 36 19 -13 -20 -20 -20 -20 -20 -20 -20 -20 -20 -20 -20 -20 -20 -20 -20 -20 -20 -20 -20
15 13 14 -2 -20 -20 -20 -20 -20 -20 -20 -20 -20 -12 -20 -18 -3 -20 2 -18 -11 7 21 33 19 24 -20 -20 -20 -20 -20 -20 -20 -20 -20 -20 -20 -13 -20 -20 -20 -20 -20 -20 -20
16 14 12 -9 -20 -20 -20 -20 -20 -20 -20 -20 7 -6 8 -20 -6 -18 26 12 13 4 0 30 21 16 -20 -20 -20 -20 -20 -20 -20 -20 -20 -20 -20 -20 -20 -20 -20 -20 -20 -20 -20
15 14 12 -20 -20 -20 -20 -20 -20 -20 -20 -20 11 -13 -10 -18 -20 -20 -18 15 15 -4 -20 17 10 6 -20 -20 -20 -20 -20 -20 -20 -20 -20 -20 -20 -20 -20 -20 -20 -20 -20 -20 -20
5 13 8 -20 -20 -20 -20 -20 -20 -20 -20 -11 8 18 20 -12 -17 2 -20 16 -0 -17 -9 7 0 4 -20 -20 -20 -20 -20 -20 -20 -20 -20 -20 -20 -20 -20 -20 -20 -20 -20 -20 -20
-20 -20 -11 -20 -20 -20 -20 -20 -20 -20 -20 -13 22 25 17 1 5 8 -6 17 -0 2 -19 27 -19 -20 -20 -19 -20 -20 -20 -20 -20 -20 -20 -20 -20 -20 -20 -20 -20 -20 -20 -20 -20
-20 -20 -20 -20 -20 -20 -20 -20 -20 -16 -3 -3 20 26 28 13 22 3 -17 -3 -20 7 -15 -7 -3 -20 -20 -20 -20 -20 -20 -20 -20 -20 -20 -20 -20 -20 -20 -20 -20 -20 -20 -20 -20
-20 -20 -20 -20 -20 -20 -20 -20 -20 -20 -20 -20 -20 -20 18 20 0 -4 -13 -20 -20 -18 -12 -20 -9 -20 -20 -20 -20 -20 -20 -20 -20 -20 -20 -20 -20 -20 -20 -20 -20 -20 -20 -20 -20
-20 -20 -20 -20 -20 -20 -20 -20 -20 -20 -20 -20 -20 -20 -20 -10 6 -20 -20 -20 -20 -20 -20 -20 -20 -19 -20 -20 -20 -20 -20 -20 -20 -20 -20 -20 -20 -20 -20 -20 -20 -20 -20 -20 -20
-20 -20 -20 -20 -20 -20 -20 -20 -20 -20 -20 -20 -20 -20 -20 -20 -20 -18 -20 -20 -20 -20 -20 -20 -20 -20 -20 -20 -20 -20 -20 -20 -20 -20 -20 -20 -20 -20 -20 -20 -20 -20 -20 -20 -20
-20 -20 -20 -20 -20 -20 -20 -20 -20 -20 -20 -20 -20 -20 -20 -20 -20 -20 -20 -20 -20 -20 -20 -20 -20 -20 -20 -20 -20 -20 -20 -20 -20 -20 -20 -20 -20 -20 -20 -20 -20 -20 -20 -20 -20
-20 -20 -20 -20 -20 -20 -20 -20 -20 -20 -20 -20 -20 -20 -20 -20 -20 -20 -20 -20 -20 -20 -9 -20 -20 -20 -20 -20 -20 -20 -20 -20 -20 -20 -20 -20 -20 -20 -20 -20 -20 -20 -20 -20 -20
-20 -20 -20 -20 -20 -20 -20 -20 -20 -20 -20 -20 -20 -20 -20 -20 -20 -20 -20 -20 -20 -20 -20 -19 -20 -20 -20 -20 -20 -20 -20 -20 -20 -20 -20 -20 -20 -20 -20 -20 -20 -20 -20 -20 -20
-20 -20 -20 -20 -20 -20 -20 -20 -20 -20 -20 -20 -20 -20 -20 -20 -20 -20 -20 -20 -20 -20 -20 -20 -20 -20 -20 -20 -20 -20 -20 -20 -20 -20 -20 -20 -20 -20 -20 -20 -20 -20 -20 -20 -20
-20 -20 -20 -20 -20 -20 -20 -20 -20 -20 -20 -20 -20 -20 -20 -20 -20 -20 -20 -20 -20 -20 -20 -20 -20 -20 -20 -20 -20 -20 -20 -20 -20 -20 -20 -20 -20 -20 -20 -20 -20 -20 -20 -20 -20
-20 -20 -20 -20 -20 -20 -20 -20 -20 -20 -20 -20 -20 -20 -20 -20 -20 -20 -20 -20 -20 -20 -20 -20 -20 -20 -20 -20 -20 -20 -20 -20 -20 -20 -20 -20 -20 -20 -20 -20 -20 -20 -20 -20 -20
Wind_Speed
12 12 13 13 14 15 17 19 21 22 20 18 17 16 15 14 12 3 9 6 9 21 12 4 4 3 2 3 3 3 2 4 7 9 6 7 6 1 2 8 3 1 4 2 15
11 12 13 14 13 15 17 19 23 21 18 10 14 12 13 10 3 8 5 9 12 13 5 5 6 6 3 5 3 4 3 7 5 5 6 7 6 9 6 5 2 3 6 14 14
10 11 13 13 14 16 18 19 20 15 13 11 11 10 9 3 2 3 7 16 11 9 6 4 3 5 5 4 5 5 5 2 2 2 2 8 4 3 11 3 6 9 14 14 12
10 11 13 13 14 16 17 18 19 16 14 12 12 10 6 2 7 2 9 8 10 5 6 4 4 4 6 6 5 3 4 2 3 2 4 8 7 6 3 0 5 13 15 12 14
10 12 13 13 15 16 16 15 17 18 12 12 7 6 5 4 4 4 12 8 7 3 6 5 6 6 6 6 6 3 3 2 4 3 5 6 5 7 4 5 10 14 11 12 9
11 12 12 13 15 16 16 15 16 18 9 8 7 1 1 5 1 5 7 5 5 6 5 5 5 6 4 7 7 5 1 2 4 1 3 8 3 3 3 5 11 11 10 8 9
11 11 11 12 14 15 14 12 15 15 12 5 4 3 2 5 3 7 7 4 3 8 7 7 8 3 5 5 5 6 5 1 6 5 4 2 5 3 3 6 10 8 7 7 8
11 11 12 13 14 15 14 12 13 16 13 8 2 2 4 0 5 11 7 4 5 5 6 10 11 4 3 2 6 4 5 5 3 6 1 1 4 1 5 10 9 8 6 6 6
12 11 12 14 15 16 16 14 14 15 10 7 2 1 4 6 5 1 4 3 8 7 5 9 5 2 2 8 5 7 5 3 2 3 1 3 4 5 4 7 8 8 7 6 6
13 11 11 13 14 15 14 8 3 8 5 1 0 3 3 5 5 3 4 4 6 13 8 6 6 2 1 5 10 7 7 3 4 3 4 6 3 5 5 6 8 8 7 7 7
12 13 12 13 14 15 6 3 5 6 7 3 7 5 5 7 4 3 0 6 9 7 5 3 4 6 9 4 7 9 6 8 2 4 4 4 4 5 5 4 7 7 7 8 8
12 13 13 13 13 12 1 4 4 3 2 3 6 5 4 3 3 8 6 3 5 7 3 2 4 2 5 4 8 7 7 4 3 5 4 3 3 4 6 5 6 9 8 8 4
12 12 12 12 14 3 1 4 2 3 1 3 3 5 5 6 4 6 7 3 7 6 9 3 5 6 4 4 6 3 10 5 7 1 6 4 5 4 4 4 5 7 6 6 9
12 11 10 11 2 2 1 2 2 2 5 8 1 1 5 4 2 3 4 3 4 6 5 1 6 5 4 4 3 5 4 7 10 5 4 3 4 4 5 6 7 7 8 8 8
12 10 7 4 3 2 1 2 2 3 5 7 3 4 4 3 2 6 4 4 3 6 4 1 5 2 4 0 1 4 5 7 5 6 6 3 6 7 2 5 8 8 9 8 7
10 8 3 1 1 0 3 4 4 8 3 5 5 1 1 3 3 3 4 2 0 6 6 2 4 2 2 4 3 8 8 10 6 4 4 2 5 6 5 5 1 2 2 6 6
8 5 1 1 2 4 3 4 6 6 2 6 3 2 3 2 2 1 2 1 3 4 2 5 5 4 4 7 5 4 7 4 6 5 6 4 2 9 3 1 2 4 3 5 5
6 3 1 1 2 5 3 5 7 4 1 3 3 4 3 1 4 2 3 1 0 4 4 4 4 5 6 3 6 1 3 8 8 5 4 3 6 6 2 2 4 5 5 4 4
2 1 2 1 3 2 5 6 7 4 2 2 4 2 3 2 3 2 3 1 2 6 4 5 2 3 1 0 2 4 1 3 9 3 5 3 7 7 2 2 3 5 4 5 4
2 2 2 3 3 4 5 1 2 4 2 2 2 2 3 4 5 1 0 1 2 1 2 5 5 1 2 1 4 2 6 4 4 5 3 5 5 7 6 8 5 5 6 5 5
2 3 1 2 3 3 4 4 3 3 3 4 2 2 2 2 2 2 2 3 3 3 4 4 4 3 1 3 4 2 1 6 5 3 6 4 8 6 6 9 10 8 6 6 6
2 1 1 2 3 0 2 4 1 1 1 1 2 2 0 3 3 2 3 2 5 3 3 2 4 3 1 1 1 1 2 3 5 2 2 2 6 2 4 7 7 8 7 4 5
3 2 1 2 2 2 3 1 1 1 2 2 2 0 1 1 1 1 2 2 3 1 2 2 2 4 5 3 2 2 2 4 5 3 4 5 5 2 4 6 5 8 6 5 7
3 1 3 2 1 4 3 2 1 1 2 1 2 1 2 3 4 2 1 1 3 1 4 3 3 4 7 4 4 3 3 4 3 4 4 6 3 4 5 7 6 5 5 6 6
2 4 2 2 2 2 2 3 1 1 0 3 1 2 0 1 2 1 1 2 2 3 1 2 3 2 1 0 1 2 4 7 7 4 6 3 6 6 11 10 8 7 6 7 7
3 3 2 1 1 3 1 5 5 1 0 2 1 2 1 3 3 5 3 2 2 1 2 2 3 2 1 2 2 3 6 7 5 3 5 3 8 8 3 7 7 9 9 7 6
1 1 3 2 1 3 3 3 4 5 1 0 2 3 3 0 1 1 3 4 2 1 1 3 4 3 2 2 4 6 10 11 6 6 9 8 10 6 4 9 11 9 9 8 7
Wind_Direction
342 331 337 325 328 332 331 325 323 317 301 297 298 286 283 290 295 235 232 218 212 249 300 136 122 198 183 216 189 148 94 197 198 158 185 171 130 48 81 115 85 37 145 190 125
328 343 327 329 332 331 330 326 324 330 322 306 294 276 278 287 218 229 240 234 251 256 218 183 174 174 205 192 204 158 152 213 205 201 167 170 130 142 135 134 86 60 44 117 130
334 334 324 327 333 334 330 326 336 330 331 310 302 278 268 224 194 231 287 252 259 277 226 193 184 170 211 159 192 186 203 242 236 251 206 144 103 107 125 199 195 176 148 138 140
325 331 325 329 336 333 328 328 332 331 319 310 303 267 226 214 220 1 349 306 275 287 225 147 174 194 180 187 171 195 240 239 308 260 157 150 122 85 42 321 275 137 147 141 152
322 322 331 337 336 332 329 331 336 338 315 315 328 142 138 213 260 349 344 338 315 207 196 176 202 182 187 168 123 189 219 35 323 158 91 101 79 138 39 8 105 124 142 142 141
324 326 332 339 334 333 334 338 333 342 326 320 113 27 266 231 330 336 327 322 231 202 171 345 218 206 181 169 154 167 137 55 14 99 60 118 99 120 44 111 102 136 133 139 145
320 327 330 336 332 331 331 343 346 348 351 302 114 86 6 291 315 318 306 268 258 196 144 281 316 285 141 128 146 135 110 10 20 330 120 136 53 55 118 119 118 124 135 148 162
321 327 329 329 328 329 323 299 321 353 337 348 122 16 221 96 321 297 312 252 214 160 102 249 300 250 174 148 47 98 60 121 323 338 270 128 166 124 155 133 137 146 161 179 174
320 327 330 326 327 327 323 297 287 302 322 332 325 88 297 180 257 186 259 157 127 122 112 291 291 348 101 127 55 22 144 123 139 353 214 71 136 151 155 143 157 174 180 192 199
322 327 328 321 321 328 328 344 350 332 342 194 213 314 0 328 302 24 304 74 97 142 148 36 337 247 84 156 178 161 117 74 133 323 44 77 93 139 167 161 181 183 193 203 208
318 318 324 321 319 330 344 12 19 354 39 4 317 271 319 311 281 16 315 99 121 145 101 76 257 207 170 251 137 124 110 114 2 328 94 64 106 196 158 167 193 204 207 217 222
321 317 316 318 317 322 35 82 165 165 320 8 322 296 271 324 326 357 5 102 161 127 106 8 297 109 118 131 122 105 119 78 37 343 87 65 88 186 184 215 196 200 220 223 202
321 317 316 321 319 36 79 105 137 122 95 314 300 306 307 324 41 7 5 328 102 92 113 27 285 320 103 104 107 81 139 156 141 157 44 79 341 176 214 231 217 221 217 206 209
321 320 319 328 62 273 309 116 140 101 59 331 10 316 301 275 72 30 20 334 50 102 76 355 291 248 94 96 123 127 137 122 125 91 155 15 244 278 211 226 227 232 218 223 215
318 324 318 333 183 138 202 126 99 57 26 331 320 310 286 6 319 27 0 7 121 134 135 111 306 215 87 54 342 163 111 109 98 89 97 337 72 268 43 248 242 235 230 224 215
314 333 327 61 38 222 116 92 43 45 308 346 329 19 223 299 33 28 38 11 242 54 66 275 236 34 103 39 40 150 85 52 60 79 35 353 119 272 190 218 241 213 278 200 182
308 330 101 136 216 148 109 58 38 74 350 323 347 49 28 23 60 9 84 168 125 109 45 14 356 345 47 71 357 70 78 37 24 19 211 322 98 239 234 271 257 181 119 133 129
292 310 33 214 141 131 69 53 63 234 5 317 315 3 62 50 42 27 55 347 229 104 90 93 345 -0 344 91 176 203 115 146 157 172 215 350 226 257 206 38 53 98 132 128 135
13 23 81 262 145 66 80 50 183 233 184 211 271 305 98 63 132 121 197 258 207 192 139 137 337 308 308 107 101 203 16 152 107 32 73 229 286 304 173 114 100 129 138 160 158
113 95 44 111 115 59 78 210 250 200 180 129 352 31 28 171 163 169 146 325 127 237 191 189 90 352 295 149 51 140 149 69 6 125 186 296 278 238 211 196 180 179 180 173 148
61 76 283 83 75 53 119 211 250 253 173 174 274 295 344 8 59 126 177 295 9 10 64 142 101 283 53 18 166 105 37 54 113 103 150 142 256 209 219 186 184 194 186 174 154
107 30 320 94 50 11 128 184 182 240 319 269 193 262 10 0 39 71 146 198 353 39 44 4 113 105 152 277 106 76 141 124 107 211 61 122 274 345 252 187 172 178 179 173 136
130 150 344 96 119 307 282 255 170 169 215 273 257 158 46 81 25 327 62 334 350 127 155 162 29 81 359 4 5 207 173 105 100 84 193 127 267 19 99 148 188 167 162 143 137
100 27 332 52 175 151 159 256 277 174 263 223 277 26 77 21 24 149 111 299 342 84 74 83 102 147 183 198 132 183 172 153 117 111 169 225 258 233 199 185 188 173 162 157 157
52 245 188 246 290 151 143 170 208 258 299 23 70 56 148 139 14 74 219 321 18 347 38 135 112 109 134 358 142 207 199 183 183 177 163 256 211 235 207 193 192 176 162 155 173
149 147 6 175 307 142 306 216 188 234 69 291 168 48 229 158 202 210 161 223 215 6 107 332 149 118 196 352 1 269 235 208 220 219 259 223 268 221 194 119 162 185 175 182 188
197 344 113 309 99 114 221 186 204 139 342 45 131 94 66 135 275 135 121 81 80 169 87 63 120 93 246 332 304 291 215 189 187 201 154 187 222 167 170 194 193 186 185 187 186